Погода Красная Поляна

Погода Красная Поляна : погода сейчас, прогноз погоды и архив. Всё, что Вы хотите узнать о погоде Красная Поляна!

Поиск расширенной информации на нашем сайте:

Другие новости

Новости СМИ2

Главная страница сайта

Новости сайта

03.07.2017

Напоминаем, что на нашем специализированном сайте Метеоцентр.Азия вы можете получить высокодетализированные автоматические прогнозы погоды по пунктам России, СНГ и мира в авиационном формате (включающие направление и скорость ветра, видимость, явления погоды, количество и форму облачности, нижнюю и верхнюю границу облачности).


Погода Красная Поляна - сегодня

Время (UTC), дата Ветер
(°,м/с) 
Видим.   Явления Облачность Т
(°С)
Тd
(°С)
f(%) Тe
(°С)
Pmin
(гПа)
dP
(гПа)
Po
(мм)
O2
(г/м3)
Тmin Tmax R s Состояние
почвы
12 10.02.18 240 (ЮЗ) 20000 м    3/0 средняя, верхняя 
[Ac cast|Ci sp]
+11.8 +2.8 54 +12  1014.8  -1.3  712  274           
18 10.02.18 020 (С) 20000 м    ясно 
+4.4 +0.4 75 +4  1016.6  -0.4  712  282           
21 10.02.18 350 (С) 20000 м    ясно 
+2.2 -1.4 77 +2  1016  -1.1  711  284           
00 11.02.18 020 (С) 20000 м    3/0 средняя 
[As trans]
+0.7 -2.2 81 +1  1014.8  -1.5  710  285           
06 11.02.18 090 (В) 20000 м    10/6 2000 м средняя, верхняя 
[Ac trans|Cs]
+3 -1.5 72 +4  1010.6  -1.7  707  282           
09 11.02.18 070 (В) 20000 м    10/0 средняя 
[Ac und]
+12.3 -1.6 38 +14  1004.7  -3.4  705  272           
12 11.02.18 230 (ЮЗ) 20000 м    3/0 верхняя 
[Ci]
+17.7 -0.1 30 +19  999.7  -3.5  702  265           
18 11.02.18 090 (В) 20000 м    8/8 1500 м 
[Sc]
+9.8 +3.1 63 +11  1001.1  -0.1  702  272           
09 14.02.18 тихо ()   20000 м    10/3 600 м средняя 
[Sc diur, vesp|Ac As]
+6.5 +2.2 74 +7  1020.9  -0.3  715  281           
18 14.02.18 040 (СВ) 20000 м    8/0 средняя, верхняя 
[As trans|Cs]
+3.9 +0.6 79 +5  1020.9  0.4  715  284           
21 14.02.18 030 (СВ) 20000 м    10/0 средняя, верхняя 
[Ac As|Cc]
+2.4 -0.2 83 +3  1021.4  0.1  715  285           
00 15.02.18 020 (С) 20000 м    10/0 средняя, верхняя 
[Ac As|Cs]
+2.8 -0.7 78 +2  1021.7  0.3  715  285           
09 15.02.18 140 (ЮВ) 20000 м    8/8 1500 м средняя 
[Cu med, cong|Ac cuf]
+10.3 +2.2 57 +10  1022.4  0.6  717  278           
18 15.02.18 020 (С) 20000 м    8/4 1500 м средняя 
[Sc|Ac cuf]
+8.1 +2.6 68 +8  1025.1  1.1  718  281           
21 15.02.18 360 (С) 20000 м    4/4 2000 м средняя 
[Ac cast]
+6.3 +2 74 +6  1024.9  -0.6  718  282           
00 16.02.18 020 (С) 20000 м    8/0 средняя, верхняя 
[Ac lent|Cs]
+5.5 +1.4 75 +5  1024.8  -0.3  718  283           
06 16.02.18 110 (В) 15000 м    8/0 средняя, верхняя 
[Ac cast|Cs]
+7.6 +1.9 67 +9  1024.4  718  281           
09 16.02.18 220 (ЮЗ) 20000 м    8/0 средняя, верхняя 
[Ac cuf|Ci fib]
+13.5 +2.1 46 +15  1021.5  -1.4  717  275           
12 16.02.18 240 (ЮЗ) 20000 м    8/3 1000 м средняя, верхняя 
[Cu med, cong|Ac cuf|Ci fib]
+17.6 +0.3 31 +18  1019  -1.4  716  271           
18 16.02.18 020 (С) 19000 м    6/0 средняя, верхняя 
[Ac As|Cs]
+8.4 +2 64 +8  1021.8  0.4  716  279           
21 16.02.18 360 (С) 20000 м    3/0 средняя 
[Ac As]
+6.3 +1.2 70 +6  1021.9  -0.4  716  282           
00 17.02.18 100 (В) 20000 м    ясно 
+4.8 +0.7 75 +6  1021.9  -0.4  715  283           
06 17.02.18 150 (ЮВ) 20000 м    10/1 1500 м средняя, верхняя 
[Cu hum|Ac As|Cs]
+7.2 +0.4 62 +8  1020.1  -0.4  715  280  +3.2         
09 17.02.18 200 (Ю) 20000 м    10/3 1500 м средняя 
[Sc|Ac trans]
+12.3 -0.2 42 +13  1017.5  -1.3  714  275           
12 17.02.18 240 (ЮЗ) 20000 м    10/9 1000 м средняя 
[Sc|Ac trans]
+13.1 +2.3 48 +14  1015.8  -1.4  713  274           
Время (UTC), дата Ветер
(°,м/с) 
Видим.   Явления Облачность Т
(°С)
Тd
(°С)
f(%) Тe
(°С)
Pmin
(гПа)
dP
(гПа)
Po
(мм)
O2
(г/м3)
Тmin Tmax R s Состояние
почвы

Для получения пояснительной информации подведите курсор к названию столбца.

ПОГОДА Красная Поляна - архив

Всё, что Вы хотите узнать о погоде Красная Поляна - удобно и подробно!

Выберите нужную дату (начиная с 1 января 2015* года) и нажмите кнопку "Найти".
Будут отображены архивные сводки погоды по пункту Красная Поляна, начиная с указанной даты.


Отображать данные в формате CSV (для использования в таблицах Excel)


Внимание! Наш архив погоды предназначен исключительно для личного некоммерческого использования в познавательных целях. Если Вам необходимы официальные справки о состоянии погоды (для производственных, юридических, коммерческих и т.п. целей), обращайтесь в органы Росгидромета.

*Примечание: данная дата относится к архиву по метеостанциям СССР (Россия, СНГ, Балтия).
Архив по метеостанциям Зарубежной Европы и Азии (кроме Китая) хранится 10 дней, по другим регионам земного шара (Китай, Африка, Америка, Австралия, Океания) - 1 день.

Красная Поляна - район местоположения метеостанции


Название, широта, долгота, высота метеостанции:
Красная Поляна 43.7°ш. 40.2°д. 568 м над ур. моря [Российская Федерация]

Дополнительная информация

В oтличие oт бoльшинства пoгoдных сайтoв мы публикуем пoдрoбную метеoинфoрмацию в детальнoм прoфессиoнальнoм фoрмате.

Характеристики температуры и влажнoсти вoздуха измеряются на высoте 2 м в тени вдали oт зданий и деревьев.
Скoрoсть ветра измеряется на высoте 10 м (на урoвне рoста челoвека скoрoсть ветра ниже в 1.5-2 раза). Если метеoстанция нахoдится в гoрoде или в лесу, тo скoрoсть ветра занижена на 2-4 м/с пo сравнению с oткрытым местoм. Скoрoсть ветра над акватoриями крупных рек и oзёр, а также на вершинах хoлмoв на 2-5 м/с выше, чем в oбычных услoвиях.
Атмoсфернoе давление в разных тoчках местнoсти мoжет значительнo oтличаться oт давления на метеoстанции, в зависимoсти oт услoвий рельефа (при пoдъёме на 10 м давление пoнижается примернo на 1 мм рт.ст.).